Tracking 21611 objects as of 21-Oct-2020
HD Live streaming from Space Station
objects crossing your sky now

GARUDA 1

Track GARUDA 1 now!
GARUDA 1 is classified as:


NORAD ID: 26089
Int'l Code: 2000-011A
Perigee: 35,888.7 km
Apogee: 35,905.0 km
Inclination: 4.5 °
Period: 1,441.4 minutes
Semi major axis: 42267 km
RCS: 16.0243 m2 (large)
Launch date: February 12, 2000
Source: Indonesia (INDO)
Launch site: TYURATAM MISSILE AND SPACE COMPLEX (TTMTR)

L-band; mobile telephone communications.
aabbcc
Your satellite tracking list
Your tracking list is empty




NASA's NSSDC Master Catalog

Two Line Element Set (TLE):
1 26089U 00011A   20294.87116341 -.00000181 +00000-0 +00000-0 0  9996
2 26089 004.5464 089.6780 0001932 126.3514 044.7118 00.99905209021028
Source of the keplerian elements: AFSPC